SWA1311 PHOG-PHNL

Flight info

Callsign SWA1311
Flight time 0h 25m
Altitude 16000
Route MAUI5 OGG LNY JULLE5
Aircraft B736/M-SDE2E3FGHIRWXY/LB1

Departure

Time 2026-05-08 03:53
Airport Kahului International Airport (PHOG)

Arrival

Time 2026-05-08 04:18
Airport Daniel K. Inouye International Airport (PHNL)
Time Latitude Longitude Altitude Speed Heading
2026-05-08 03:41 20.89439 -156.43566 46 ft 0 kts 307°
2026-05-08 03:43 20.89437 -156.43563 46 ft 2 kts 307°
2026-05-08 03:43 20.89427 -156.43549 47 ft 2 kts 306°
2026-05-08 03:43 20.89418 -156.43535 46 ft 2 kts 306°
2026-05-08 03:43 20.89408 -156.43521 44 ft 2 kts 305°
2026-05-08 03:44 20.89399 -156.43507 47 ft 2 kts 305°
2026-05-08 03:44 20.89399 -156.43506 47 ft 0 kts 305°
2026-05-08 03:45 20.89399 -156.43508 47 ft 1 kts 302°
2026-05-08 03:45 20.89387 -156.43525 48 ft 5 kts 192°
2026-05-08 03:45 20.89355 -156.43519 51 ft 5 kts 169°
2026-05-08 03:45 20.89323 -156.43514 52 ft 5 kts 175°
2026-05-08 03:46 20.89292 -156.43514 53 ft 5 kts 193°
2026-05-08 03:46 20.89264 -156.43529 54 ft 5 kts 208°
2026-05-08 03:46 20.89236 -156.43551 54 ft 5 kts 218°
2026-05-08 03:46 20.89205 -156.43577 50 ft 6 kts 218°
2026-05-08 03:47 20.89170 -156.43603 55 ft 6 kts 214°
2026-05-08 03:47 20.89133 -156.43631 56 ft 7 kts 214°
2026-05-08 03:47 20.89093 -156.43660 59 ft 7 kts 214°
2026-05-08 03:47 20.89050 -156.43691 60 ft 8 kts 214°
2026-05-08 03:48 20.89003 -156.43709 59 ft 7 kts 165°
2026-05-08 03:48 20.88985 -156.43697 59 ft 0 kts 138°
2026-05-08 03:51 20.88983 -156.43694 59 ft 2 kts 135°
2026-05-08 03:51 20.88964 -156.43669 60 ft 7 kts 126°
2026-05-08 03:51 20.88949 -156.43612 61 ft 9 kts 65°
2026-05-08 03:52 20.89014 -156.43558 56 ft 28 kts 35°
2026-05-08 03:52 20.89098 -156.43492 54 ft 6 kts 24°
2026-05-08 03:52 20.89161 -156.43451 50 ft 34 kts 34°
2026-05-08 03:52 20.89648 -156.43089 46 ft 133 kts 34°
2026-05-08 03:53 20.90480 -156.42480 959 ft 141 kts 33°
2026-05-08 03:53 20.91354 -156.42082 2193 ft 140 kts
2026-05-08 03:53 20.92320 -156.42416 2996 ft 167 kts 328°
2026-05-08 03:53 20.93109 -156.43554 3452 ft 220 kts 287°
2026-05-08 03:54 20.93104 -156.45305 4020 ft 250 kts 259°
2026-05-08 03:54 20.92761 -156.47145 5085 ft 253 kts 258°
2026-05-08 03:54 20.92407 -156.49012 6107 ft 256 kts 257°
2026-05-08 03:54 20.92063 -156.50878 7192 ft 256 kts 258°
2026-05-08 03:55 20.91716 -156.52820 7980 ft 275 kts 258°
2026-05-08 03:55 20.91363 -156.54862 9013 ft 283 kts 259°
2026-05-08 03:55 20.91014 -156.56939 10218 ft 283 kts 259°
2026-05-08 03:55 20.90664 -156.59072 10983 ft 302 kts 260°
2026-05-08 03:56 20.90291 -156.61358 11459 ft 326 kts 259°
2026-05-08 03:56 20.89905 -156.63748 11922 ft 331 kts 260°
2026-05-08 03:56 20.89511 -156.66205 11994 ft 344 kts 260°
2026-05-08 03:56 20.89100 -156.68777 11993 ft 351 kts 260°
2026-05-08 03:57 20.88692 -156.71334 11993 ft 349 kts 260°
2026-05-08 03:57 20.88284 -156.73897 11989 ft 347 kts 260°
2026-05-08 03:57 20.87877 -156.76451 11996 ft 350 kts 260°
2026-05-08 03:57 20.87470 -156.79002 11989 ft 348 kts 260°
2026-05-08 03:58 20.87060 -156.81564 11991 ft 349 kts 260°
2026-05-08 03:58 20.86657 -156.84085 11986 ft 350 kts 260°
2026-05-08 03:58 20.86248 -156.86639 11985 ft 349 kts 260°
2026-05-08 03:58 20.85839 -156.89196 11990 ft 348 kts 261°
2026-05-08 03:59 20.85665 -156.91773 11991 ft 349 kts 270°
2026-05-08 03:59 20.85959 -156.94366 11993 ft 353 kts 282°
2026-05-08 03:59 20.86596 -156.96886 11984 ft 350 kts 283°
2026-05-08 03:59 20.87169 -156.99423 11995 ft 352 kts 282°
2026-05-08 04:00 20.87708 -157.01965 11989 ft 349 kts 282°
2026-05-08 04:00 20.88241 -157.04507 11994 ft 351 kts 282°
2026-05-08 04:00 20.88778 -157.07046 11986 ft 349 kts 282°
2026-05-08 04:00 20.89322 -157.09590 11994 ft 351 kts 282°
2026-05-08 04:01 20.89871 -157.12136 11999 ft 354 kts 282°
2026-05-08 04:01 20.90239 -157.13838 11996 ft 355 kts 282°
2026-05-08 04:01 20.90800 -157.16425 11999 ft 358 kts 282°
2026-05-08 04:01 20.91367 -157.19026 11997 ft 359 kts 282°
2026-05-08 04:02 20.92115 -157.22459 11986 ft 356 kts 282°
2026-05-08 04:02 20.92495 -157.24202 11984 ft 356 kts 282°
2026-05-08 04:02 20.93056 -157.26775 11989 ft 355 kts 282°
2026-05-08 04:02 20.93615 -157.29342 11992 ft 354 kts 282°
2026-05-08 04:03 20.94175 -157.31910 11992 ft 355 kts 282°
2026-05-08 04:03 20.95285 -157.37025 11988 ft 355 kts 282°
2026-05-08 04:03 20.95845 -157.39604 11989 ft 355 kts 282°
2026-05-08 04:04 20.96405 -157.42182 11980 ft 355 kts 282°
2026-05-08 04:04 20.96964 -157.44763 11981 ft 356 kts 282°
2026-05-08 04:04 20.97522 -157.47338 11979 ft 356 kts 282°
2026-05-08 04:04 20.98075 -157.49894 11970 ft 348 kts 282°
2026-05-08 04:05 20.98613 -157.52384 11974 ft 342 kts 282°
2026-05-08 04:05 20.99147 -157.54856 11985 ft 339 kts 282°
2026-05-08 04:05 20.99676 -157.57305 11969 ft 336 kts 282°
2026-05-08 04:05 21.00204 -157.59750 11614 ft 337 kts 282°
2026-05-08 04:06 21.00732 -157.62200 11145 ft 337 kts 282°
2026-05-08 04:06 21.01248 -157.64594 10647 ft 332 kts 282°
2026-05-08 04:06 21.01758 -157.66964 10473 ft 319 kts 282°
2026-05-08 04:06 21.02247 -157.69234 10315 ft 306 kts 282°
2026-05-08 04:07 21.02717 -157.71415 10180 ft 294 kts 282°
2026-05-08 04:07 21.03167 -157.73510 10059 ft 283 kts 282°
2026-05-08 04:07 21.03601 -157.75531 9815 ft 277 kts 282°
2026-05-08 04:07 21.04031 -157.77537 9471 ft 275 kts 282°
2026-05-08 04:08 21.04457 -157.79527 9142 ft 273 kts 282°
2026-05-08 04:08 21.04881 -157.81504 8813 ft 271 kts 282°
2026-05-08 04:08 21.05296 -157.83443 8483 ft 270 kts 282°
2026-05-08 04:08 21.05715 -157.85402 8163 ft 269 kts 282°
2026-05-08 04:09 21.06133 -157.87354 7831 ft 268 kts 282°
2026-05-08 04:09 21.06549 -157.89300 7502 ft 268 kts 282°
2026-05-08 04:09 21.06963 -157.91237 7181 ft 267 kts 282°
2026-05-08 04:09 21.07377 -157.93175 6856 ft 267 kts 282°
2026-05-08 04:10 21.07718 -157.95132 6462 ft 269 kts 276°
2026-05-08 04:10 21.07951 -157.97127 6085 ft 270 kts 278°
2026-05-08 04:10 21.08286 -157.99106 5751 ft 269 kts 282°
2026-05-08 04:10 21.08774 -158.01038 5425 ft 268 kts 288°
2026-05-08 04:11 21.09428 -158.02900 5124 ft 267 kts 294°
2026-05-08 04:11 21.10230 -158.04683 4826 ft 267 kts 299°
2026-05-08 04:11 21.11153 -158.06374 4506 ft 264 kts 304°
2026-05-08 04:11 21.12176 -158.07958 4181 ft 254 kts 308°
2026-05-08 04:12 21.13281 -158.09420 3890 ft 251 kts 313°
2026-05-08 04:12 21.14470 -158.10767 3707 ft 244 kts 320°
2026-05-08 04:12 21.15910 -158.11588 3586 ft 230 kts 353°
2026-05-08 04:12 21.17437 -158.11436 3486 ft 219 kts 26°
2026-05-08 04:13 21.18636 -158.10471 3436 ft 218 kts 47°
2026-05-08 04:13 21.19634 -158.09223 3344 ft 222 kts 49°
2026-05-08 04:13 21.20642 -158.07985 3233 ft 218 kts 51°
2026-05-08 04:13 21.21555 -158.06744 3131 ft 211 kts 53°
2026-05-08 04:14 21.22425 -158.05508 2883 ft 204 kts 53°
2026-05-08 04:14 21.23260 -158.04312 2622 ft 198 kts 53°
2026-05-08 04:14 21.24070 -158.03156 2376 ft 191 kts 53°
2026-05-08 04:14 21.24856 -158.02034 2143 ft 185 kts 53°
2026-05-08 04:15 21.25620 -158.00944 1890 ft 180 kts 53°
2026-05-08 04:15 21.26377 -157.99866 1672 ft 179 kts 53°
2026-05-08 04:15 21.27110 -157.98820 1427 ft 171 kts 53°
2026-05-08 04:15 21.27810 -157.97820 1187 ft 163 kts 53°
2026-05-08 04:16 21.28453 -157.96905 1009 ft 144 kts 53°
2026-05-08 04:16 21.29015 -157.96100 815 ft 122 kts 50°
2026-05-08 04:16 21.29511 -157.95399 661 ft 119 kts 52°
2026-05-08 04:16 21.30027 -157.94663 483 ft 125 kts 51°
2026-05-08 04:17 21.30548 -157.93919 362 ft 126 kts 52°
2026-05-08 04:17 21.31085 -157.93153 193 ft 128 kts 52°
2026-05-08 04:17 21.31615 -157.92404 30 ft 123 kts 52°
2026-05-08 04:17 21.32068 -157.91761 17 ft 91 kts 53°
2026-05-08 04:18 21.32284 -157.91456 12 ft 31 kts 45°
2026-05-08 04:18 21.32463 -157.91351 13 ft 28 kts 20°
2026-05-08 04:18 21.32639 -157.91319 15 ft 24 kts
2026-05-08 04:18 21.32716 -157.91308 16 ft 9 kts
2026-05-08 04:19 21.32773 -157.91319 17 ft 9 kts 299°
2026-05-08 04:19 21.32776 -157.91386 16 ft 9 kts 267°
2026-05-08 04:19 21.32774 -157.91452 16 ft 9 kts 270°
2026-05-08 04:19 21.32798 -157.91505 17 ft 8 kts 340°
2026-05-08 04:20 21.32855 -157.91505 18 ft 8 kts
2026-05-08 04:20 21.32884 -157.91505 18 ft 0 kts 358°